ELECTRON R/B (44228 NORAD) Tracking and Keplerian Element Data

This shows tracking and keplerian element data for the satellite.

Feedback or suggestion? Click here.




ElementValue
Catalog44228
NameELECTRON R/B
Epoch Orbit194
Epoch Day137.48572979
Epoch Year2019
RAAN155.4873
Inclination40.0022
Eccentricity0.00435
Argument of Perigee353.091
Mean Anonmoly7.0291
Mean Motion16.38978334
Decay Rate0.14961047
L11 44228U 19026D 19137.48572979 .14961047 74632-5 46745-3 0 9998
L22 44228 40.0022 155.4873 0043500 353.0910 7.0291 16.38978334 1941

Live tracking and technical data element details for ELECTRON R/B (NORAD 44228). ELECTRON R/B can be tracked NOW for your location showing map with azimuth and elevation plus other details from your city location.

Track the satellite on the map from your city or location and see movement details for azimuth, elevation, latitude, longitude, range, height, and movement on the map or in text.







IsCatalogInMostPopularTable: catalog: 44228, numindb: 15
Update: records affected: 1



GetName: 44228 ELECTRON R/B

Hit Count: updated at: Mon, 15 Jul 2019 22:09:54 GMT